User: anonymous   Login
Location: Mattaponi
(37.5353°N, 76.7712°W)
Time: 10:36:42
(UTC+00:00)
Language:

ISS - Orbit

View from above orbital plane
View from above orbital plane
View from above satellite
View from above satellite

Ground track
Ground track

The orbit data is extracted from the following two-line orbital elements,

1 25544U 98067A   24151.17681900  .00023778  00000-0  41348-3 0  9995
2 25544  51.6407  44.5729 0005661 250.0915 245.6799 15.50657164455754
Epoch (UTC): 30 May 2024 04:14:37
Eccentricity: 0.0005661
inclination: 51.6407°
perigee height: 411 km
apogee height: 418 km
right ascension of ascending node: 44.5729°
argument of perigee: 250.0915°
revolutions per day: 15.50657164
mean anomaly at epoch: 245.6799°
orbit number at epoch: 45575

The dashed part of the orbit path shows where the satellite is in the earth's shadow,  

DLR